STARLINK-32480, 62039

Orbit data source: Space-Track

STARLINK-32480, 62039 is a payload satellite owned by SpaceX/Seattle (US) in LEO that was launched on Thu, 21 Nov 2024 UTC via an FALCON 9 launch vehicle from the Air Force Eastern Test Range (AFETR). Payloads include a variety of satellites, spacecraft, and rockets equipped with specific instruments for various scientific and technological missions. These include communications satellites like Starlink; space stations such as the ISS; scientific satellites like the Hubble; Earth observation satellites from companies like Planet Labs, Umbra, and HawkEye 360; GPS; miniature CubeSats for education and research; and military/defense satellites.

Loading next visibility...
STARLINK-32480 details
Identifier
62039, 2024-216H
Orbit
LEO
Last TLE update9 hours ago
Origin
Flag of USSpaceX/Seattle (US)
ManufacturerSpaceX/Seattle
MissionOperational spacecraft
Bus & MotorSTARLINK V2M, Unknown motor
Mass730 kg wet, ~700 kg dry
Launch date (UTC)
2024-11-21 (3 weeks ago)
Launch vehicle
FALCON 9
Launch site
Air Force Eastern Test Range (AFETR)
Object type
Payload
Rocket body
Debris
Shape & HBRUnknown
Radar Cross SectionLarge (>1 m²)

Expand to show TLE details & history

TLE from 9 hours ago
0 STARLINK-32480
1 62039U 24216H   24348.50002315 -.00006902  00000-0 -11189-3 0  9994
2 62039  42.9997 307.3926 0001135 277.2780 186.3863 15.50587901  4421
Epoch: 2024-12-13T12:00Z
Definitive object data (Epoch: 2024-12-13T12:00:02Z)
Latitude41.6616°
Longitude153.1237°
Altitude418.582 km
Speed7.666 km/s
True Right ascension03h 43m 11s
True Declination41° 28' 56"
Sunlit
Object was in full shadow at TLE epoch
Visualization TLE readout
Latitude43.06413°
Longitude127.80072°
Altitude418.888 km
Speed7.665 km/s
Apparent Right ascension04h 51m 17s
Apparent Declination4° 19' 19"
Sunlit
Object is in full shadow
Visualization observer readout
Local Sidereal Time19:43:52
Azimuth52.427° ENE
Elevation-30.641°
Doppler factor1
Orbital elements
Apogee altitude417.744 km
Perigee altitude416.202 km
Semi-major axis6,795.11 km
Eccentricity0.0001135
Inclination42.9997°
RAAN307.3926°
Arg. of periapsis277.278°
True anomaly186.38485°
Mean anomaly186.3863°
Eccentric anomaly186.38558°
Mean motion3.87479 °/min
BSTAR-0.00011189
Orbital period92.91 mins
Loading maneuver chart data...
Loading historical data...
Loading historical data...
Loading historical data...
Loading historical data...
Loading historical data...
Loading historical data...
Loading historical data...

STARLINK-32480 Visibility forecast

Observer location: undefined°, undefined

Span
Click to sort rows by Start time (UTC) header in descending order
Start Az.
Max El. time (UTC)
Max El. Az.
Max El.
End time (UTC)
End Az.
4 mins2024-12-14 01:44:10.366Z241.143° WSW2024-12-14 01:45:10.366Z224.316° SW41.703°2024-12-14 01:48:10.366Z74.217° E
5 mins2024-12-14 03:21:10.366Z288.818° WNW2024-12-14 03:23:10.366Z357.828° N36.704°2024-12-14 03:26:10.366Z72.032° E
4 mins2024-12-14 04:59:10.366Z296.235° NW2024-12-14 05:01:10.366Z60.696° ENE41.28°2024-12-14 05:03:10.366Z96.315° ESE
4 mins2024-12-14 06:36:10.366Z261.648° W2024-12-14 06:38:10.366Z206.515° SW26.328°2024-12-14 06:40:10.366Z156.331° SSE
|